Location: Unspecified
(0.0000°N, 0.0000°E)
Time: 19:14:16
(UTC+00:00)

Transit 4A - Pass Details

Date: 20 November 2019
Orbit: 870 x 975 km, 66.8° (Epoch: 08 December)

Event Time Altitude Azimuth Distance (km) Brightness Sun altitude
Rises 09:11:32 0° 309° (NW) 3,442 10.5 47.5°
Reaches altitude 10° 09:14:51 10° 289° (WNW) 2,510 9.9 48.2°
Maximum altitude 09:18:31 17° 250° (WSW) 2,049 9.6 49.0°
Drops below altitude 10° 09:22:14 10° 210° (SSW) 2,536 10.3 49.8°
Sets 09:25:39 0° 190° (S) 3,493 11.1 50.5°
